Time,TemperatureF,DewpointF,PressureIn,WindDirection,WindDirectionDegrees,WindSpeedMPH,WindSpeedGustMPH,Humidity,HourlyPrecipIn,Conditions,Clouds,dailyrainin,SoftwareType,DateUTC
2013-04-06 00:00:00,31.8,22.5,30.15,West,280,6.0,10.0,68,0.00,,,0.00,WUHU216DAVISVP2,2013-04-06 04:00:00,
2013-04-06 00:02:00,31.8,22.5,30.15,WNW,289,2.0,10.0,68,0.00,,,0.00,WUHU216DAVISVP2,2013-04-06 04:02:00,
2013-04-06 00:07:00,31.8,22.9,30.15,WNW,289,2.0,11.0,69,0.00,,,0.00,WUHU216DAVISVP2,2013-04-06 04:07:00,
2013-04-06 00:13:00,31.8,22.9,30.15,West,280,7.0,11.0,69,0.00,,,0.00,WUHU216DAVISVP2,2013-04-06 04:13:00,
2013-04-06 00:18:00,31.8,22.9,30.16,WNW,284,4.0,11.0,69,0.00,,,0.00,WUHU216DAVISVP2,2013-04-06 04:18:00,
2013-04-06 00:23:00,31.8,23.2,30.16,NNW,337,6.0,11.0,70,0.00,,,0.00,WUHU216DAVISVP2,2013-04-06 04:23:00,
2013-04-06 00:29:00,31.7,23.1,30.16,NW,323,3.0,11.0,70,0.00,,,0.00,WUHU216DAVISVP2,2013-04-06 04:29:00,
2013-04-06 00:34:00,31.6,23.3,30.16,WNW,297,6.0,11.0,71,0.00,,,0.00,WUHU216DAVISVP2,2013-04-06 04:34:00,
2013-04-06 00:39:00,31.4,23.1,30.16,NNW,330,3.0,9.0,71,0.00,,,0.00,WUHU216DAVISVP2,2013-04-06 04:39:00,
2013-04-06 00:47:00,31.4,23.4,30.17,West,276,4.0,9.0,72,0.00,,,0.00,WUHU216DAVISVP2,2013-04-06 04:47:00,
2013-04-06 00:52:00,31.4,23.5,30.17,NNW,333,2.0,11.0,72,0.00,,,0.00,WUHU216DAVISVP2,2013-04-06 04:52:00,
2013-04-06 00:57:00,31.4,23.5,30.17,NW,304,2.0,11.0,72,0.00,,,0.00,WUHU216DAVISVP2,2013-04-06 04:57:00,
2013-04-06 01:02:00,31.3,23.4,30.17,NW,318,3.0,11.0,72,0.00,,,0.00,WUHU216DAVISVP2,2013-04-06 05:02:00,
2013-04-06 01:10:00,31.3,23.4,30.17,WNW,293,4.0,9.0,72,0.00,,,0.00,WUHU216DAVISVP2,2013-04-06 05:10:00,
2013-04-06 01:15:00,31.2,23.3,30.18,NNW,328,5.0,8.0,72,0.00,,,0.00,WUHU216DAVISVP2,2013-04-06 05:15:00,
2013-04-06 01:22:00,31.2,23.3,30.18,WNW,300,5.0,8.0,72,0.00,,,0.00,WUHU216DAVISVP2,2013-04-06 05:22:00,
2013-04-06 01:27:00,31.0,23.0,30.18,NW,322,2.0,8.0,72,0.00,,,0.00,WUHU216DAVISVP2,2013-04-06 05:27:00,
2013-04-06 01:33:00,31.0,23.4,30.19,NNW,328,4.0,10.0,73,0.00,,,0.00,WUHU216DAVISVP2,2013-04-06 05:33:00,
2013-04-06 01:38:00,30.9,23.3,30.19,WNW,288,3.0,10.0,73,0.00,,,0.00,WUHU216DAVISVP2,2013-04-06 05:38:00,
2013-04-06 01:43:00,30.9,23.3,30.19,WNW,291,7.0,10.0,73,0.00,,,0.00,WUHU216DAVISVP2,2013-04-06 05:43:00,
2013-04-06 01:49:00,30.8,23.2,30.19,WNW,298,3.0,8.0,73,0.00,,,0.00,WUHU216DAVISVP2,2013-04-06 05:49:00,
2013-04-06 01:54:00,30.7,23.1,30.19,WNW,296,4.0,8.0,73,0.00,,,0.00,WUHU216DAVISVP2,2013-04-06 05:54:00,
2013-04-06 01:59:00,30.6,23.0,30.19,NW,315,3.0,8.0,73,0.00,,,0.00,WUHU216DAVISVP2,2013-04-06 05:59:00,
2013-04-06 02:05:00,30.5,22.9,30.20,WNW,290,5.0,8.0,73,0.00,,,0.00,WUHU216DAVISVP2,2013-04-06 06:05:00,
2013-04-06 02:11:00,30.5,22.9,30.20,NNW,328,4.0,8.0,73,0.00,,,0.00,WUHU216DAVISVP2,2013-04-06 06:11:00,
2013-04-06 02:16:00,30.4,22.8,30.20,WNW,287,2.0,8.0,73,0.00,,,0.00,WUHU216DAVISVP2,2013-04-06 06:16:00,
2013-04-06 02:22:00,30.3,22.7,30.20,NW,319,3.0,8.0,73,0.00,,,0.00,WUHU216DAVISVP2,2013-04-06 06:22:00,
2013-04-06 02:29:00,30.2,22.6,30.21,WNW,294,6.0,8.0,73,0.00,,,0.00,WUHU216DAVISVP2,2013-04-06 06:29:00,
2013-04-06 02:34:00,30.2,22.6,30.21,WNW,290,5.0,9.0,73,0.00,,,0.00,WUHU216DAVISVP2,2013-04-06 06:34:00,
2013-04-06 02:40:00,30.2,22.6,30.21,WNW,293,3.0,9.0,73,0.00,,,0.00,WUHU216DAVISVP2,2013-04-06 06:40:00,
2013-04-06 02:46:00,30.1,22.9,30.21,NNW,330,4.0,9.0,74,0.00,,,0.00,WUHU216DAVISVP2,2013-04-06 06:46:00,
2013-04-06 02:51:00,30.0,22.8,30.21,NNW,333,4.0,6.0,74,0.00,,,0.00,WUHU216DAVISVP2,2013-04-06 06:51:00,
2013-04-06 02:57:00,29.9,22.6,30.21,WNW,293,3.0,7.0,74,0.00,,,0.00,WUHU216DAVISVP2,2013-04-06 06:57:00,
2013-04-06 03:03:00,29.7,22.4,30.21,NW,325,2.0,7.0,74,0.00,,,0.00,WUHU216DAVISVP2,2013-04-06 07:03:00,
2013-04-06 03:08:00,29.6,22.4,30.22,WNW,298,2.0,7.0,74,0.00,,,0.00,WUHU216DAVISVP2,2013-04-06 07:08:00,
2013-04-06 03:13:00,29.6,22.4,30.22,WNW,289,2.0,6.0,74,0.00,,,0.00,WUHU216DAVISVP2,2013-04-06 07:13:00,
2013-04-06 03:18:00,29.6,22.4,30.22,WNW,291,1.0,9.0,74,0.00,,,0.00,WUHU216DAVISVP2,2013-04-06 07:18:00,
2013-04-06 03:24:00,29.5,22.6,30.22,NW,325,4.0,9.0,75,0.00,,,0.00,WUHU216DAVISVP2,2013-04-06 07:24:00,
2013-04-06 03:29:00,29.5,22.6,30.23,WNW,291,3.0,9.0,75,0.00,,,0.00,WUHU216DAVISVP2,2013-04-06 07:29:00,
2013-04-06 03:34:00,29.4,22.5,30.23,NW,326,2.0,9.0,75,0.00,,,0.00,WUHU216DAVISVP2,2013-04-06 07:34:00,
2013-04-06 03:41:00,29.3,22.4,30.23,WNW,287,2.0,6.0,75,0.00,,,0.00,WUHU216DAVISVP2,2013-04-06 07:41:00,
2013-04-06 03:46:00,29.3,22.4,30.23,NW,317,1.0,6.0,75,0.00,,,0.00,WUHU216DAVISVP2,2013-04-06 07:46:00,
2013-04-06 03:51:00,29.2,22.3,30.23,WNW,290,1.0,6.0,75,0.00,,,0.00,WUHU216DAVISVP2,2013-04-06 07:51:00,
2013-04-06 03:57:00,29.2,22.3,30.24,WNW,300,2.0,6.0,75,0.00,,,0.00,WUHU216DAVISVP2,2013-04-06 07:57:00,
2013-04-06 04:02:00,29.1,22.2,30.24,WNW,290,3.0,6.0,75,0.00,,,0.00,WUHU216DAVISVP2,2013-04-06 08:02:00,
2013-04-06 04:07:00,29.0,22.1,30.24,WNW,291,2.0,7.0,75,0.00,,,0.00,WUHU216DAVISVP2,2013-04-06 08:07:00,
2013-04-06 04:12:00,28.9,22.0,30.24,WNW,285,1.0,7.0,75,0.00,,,0.00,WUHU216DAVISVP2,2013-04-06 08:12:00,
2013-04-06 04:18:00,28.9,22.0,30.24,WNW,284,1.0,7.0,75,0.00,,,0.00,WUHU216DAVISVP2,2013-04-06 08:18:00,
2013-04-06 04:24:00,28.8,21.9,30.25,WNW,293,3.0,7.0,75,0.00,,,0.00,WUHU216DAVISVP2,2013-04-06 08:24:00,
2013-04-06 04:30:00,28.6,21.7,30.25,NW,304,2.0,6.0,75,0.00,,,0.00,WUHU216DAVISVP2,2013-04-06 08:30:00,
2013-04-06 04:37:00,28.5,21.6,30.26,WNW,295,4.0,6.0,75,0.00,,,0.00,WUHU216DAVISVP2,2013-04-06 08:37:00,
2013-04-06 04:43:00,28.6,21.7,30.26,West,266,1.0,6.0,75,0.00,,,0.00,WUHU216DAVISVP2,2013-04-06 08:43:00,
2013-04-06 04:49:00,28.6,21.7,30.26,NW,304,1.0,6.0,75,0.00,,,0.00,WUHU216DAVISVP2,2013-04-06 08:49:00,
2013-04-06 04:54:00,28.3,21.4,30.26,West,281,1.0,5.0,75,0.00,,,0.00,WUHU216DAVISVP2,2013-04-06 08:54:00,
2013-04-06 04:59:00,28.1,21.2,30.26,WNW,287,1.0,4.0,75,0.00,,,0.00,WUHU216DAVISVP2,2013-04-06 08:59:00,
2013-04-06 05:05:00,28.0,21.4,30.26,WNW,283,0.0,3.0,76,0.00,,,0.00,WUHU216DAVISVP2,2013-04-06 09:05:00,
2013-04-06 05:10:00,27.8,21.2,30.26,WNW,290,3.0,4.0,76,0.00,,,0.00,WUHU216DAVISVP2,2013-04-06 09:10:00,
2013-04-06 05:15:00,27.7,21.2,30.27,WNW,301,1.0,4.0,76,0.00,,,0.00,WUHU216DAVISVP2,2013-04-06 09:15:00,
2013-04-06 05:20:00,27.6,21.4,30.27,WNW,294,0.0,4.0,77,0.00,,,0.00,WUHU216DAVISVP2,2013-04-06 09:20:00,
2013-04-06 05:25:00,27.5,21.2,30.27,NW,304,1.0,4.0,77,0.00,,,0.00,WUHU216DAVISVP2,2013-04-06 09:25:00,
2013-04-06 05:33:00,27.3,21.1,30.27,NW,304,1.0,2.0,77,0.00,,,0.00,WUHU216DAVISVP2,2013-04-06 09:33:00,
2013-04-06 05:38:00,27.2,21.0,30.27,WNW,287,1.0,2.0,77,0.00,,,0.00,WUHU216DAVISVP2,2013-04-06 09:38:00,
2013-04-06 05:43:00,27.1,20.9,30.27,WNW,302,1.0,2.0,77,0.00,,,0.00,WUHU216DAVISVP2,2013-04-06 09:43:00,
2013-04-06 05:50:00,27.1,20.6,30.27,WNW,290,1.0,2.0,76,0.00,,,0.00,WUHU216DAVISVP2,2013-04-06 09:50:00,
2013-04-06 05:55:00,27.0,20.4,30.28,WNW,291,1.0,2.0,76,0.00,,,0.00,WUHU216DAVISVP2,2013-04-06 09:55:00,
2013-04-06 06:03:00,26.9,20.3,30.28,West,280,0.0,2.0,76,0.00,,,0.00,WUHU216DAVISVP2,2013-04-06 10:03:00,
2013-04-06 06:08:00,26.5,20.3,30.28,West,280,1.0,2.0,77,0.00,,,0.00,WUHU216DAVISVP2,2013-04-06 10:08:00,
2013-04-06 06:13:00,26.5,20.0,30.28,West,280,0.0,2.0,76,0.00,,,0.00,WUHU216DAVISVP2,2013-04-06 10:13:00,
2013-04-06 06:19:00,26.4,20.2,30.28,West,280,1.0,1.0,77,0.00,,,0.00,WUHU216DAVISVP2,2013-04-06 10:19:00,
2013-04-06 06:25:00,26.2,20.0,30.29,WNW,287,0.0,2.0,77,0.00,,,0.00,WUHU216DAVISVP2,2013-04-06 10:25:00,
2013-04-06 06:30:00,26.1,19.9,30.29,WNW,287,0.0,2.0,77,0.00,,,0.00,WUHU216DAVISVP2,2013-04-06 10:30:00,
2013-04-06 06:37:00,25.7,19.8,30.29,WNW,287,0.0,2.0,78,0.00,,,0.00,WUHU216DAVISVP2,2013-04-06 10:37:00,
2013-04-06 06:42:00,25.7,19.8,30.30,WNW,288,1.0,2.0,78,0.00,,,0.00,WUHU216DAVISVP2,2013-04-06 10:42:00,
2013-04-06 06:47:00,25.9,19.7,30.30,WNW,287,1.0,2.0,77,0.00,,,0.00,WUHU216DAVISVP2,2013-04-06 10:47:00,
2013-04-06 06:54:00,26.0,19.5,30.30,WNW,288,0.0,2.0,76,0.00,,,0.00,WUHU216DAVISVP2,2013-04-06 10:54:00,
2013-04-06 07:00:00,25.8,19.6,30.30,WNW,287,0.0,1.0,77,0.00,,,0.00,WUHU216DAVISVP2,2013-04-06 11:00:00,
2013-04-06 07:05:00,26.0,19.8,30.30,West,275,0.0,2.0,77,0.00,,,0.00,WUHU216DAVISVP2,2013-04-06 11:05:00,
2013-04-06 07:12:00,26.3,20.1,30.30,WNW,283,2.0,2.0,77,0.00,,,0.00,WUHU216DAVISVP2,2013-04-06 11:12:00,
2013-04-06 07:17:00,27.0,20.5,30.31,WNW,284,0.0,2.0,76,0.00,,,0.00,WUHU216DAVISVP2,2013-04-06 11:17:00,
2013-04-06 07:22:00,27.2,20.7,30.31,NNW,335,1.0,2.0,76,0.00,,,0.00,WUHU216DAVISVP2,2013-04-06 11:22:00,
2013-04-06 07:28:00,27.5,20.7,30.31,NNW,335,1.0,2.0,75,0.00,,,0.00,WUHU216DAVISVP2,2013-04-06 11:28:00,
2013-04-06 07:35:00,27.7,20.5,30.31,North,353,1.0,4.0,74,0.00,,,0.00,WUHU216DAVISVP2,2013-04-06 11:35:00,
2013-04-06 07:39:00,27.9,20.4,30.31,NNW,332,2.0,4.0,73,0.00,,,0.00,WUHU216DAVISVP2,2013-04-06 11:39:00,
2013-04-06 07:44:00,28.1,20.6,30.32,NNW,336,1.0,4.0,73,0.00,,,0.00,WUHU216DAVISVP2,2013-04-06 11:44:00,
2013-04-06 07:52:00,28.7,20.5,30.32,NNW,337,1.0,4.0,71,0.00,,,0.00,WUHU216DAVISVP2,2013-04-06 11:52:00,
2013-04-06 07:57:00,29.0,20.4,30.32,NNW,333,2.0,4.0,70,0.00,,,0.00,WUHU216DAVISVP2,2013-04-06 11:57:00,
2013-04-06 08:03:00,29.4,20.5,30.32,NNW,330,2.0,4.0,69,0.00,,,0.00,WUHU216DAVISVP2,2013-04-06 12:03:00,
2013-04-06 08:08:00,29.8,20.6,30.33,NW,326,1.0,4.0,68,0.00,,,0.00,WUHU216DAVISVP2,2013-04-06 12:08:00,
2013-04-06 08:13:00,30.5,20.6,30.33,ENE,57,1.0,4.0,66,0.00,,,0.00,WUHU216DAVISVP2,2013-04-06 12:13:00,
2013-04-06 08:22:00,31.3,20.2,30.33,NW,316,1.0,5.0,63,0.00,,,0.00,WUHU216DAVISVP2,2013-04-06 12:22:00,
2013-04-06 08:27:00,31.9,20.0,30.33,NNW,333,1.0,5.0,61,0.00,,,0.00,WUHU216DAVISVP2,2013-04-06 12:27:00,
2013-04-06 08:32:00,32.1,19.0,30.34,NNW,345,2.0,6.0,58,0.00,,,0.00,WUHU216DAVISVP2,2013-04-06 12:32:00,
2013-04-06 08:37:00,32.3,19.2,30.34,ENE,75,1.0,6.0,58,0.00,,,0.00,WUHU216DAVISVP2,2013-04-06 12:37:00,
2013-04-06 08:42:00,32.5,18.9,30.34,North,351,4.0,6.0,57,0.00,,,0.00,WUHU216DAVISVP2,2013-04-06 12:42:00,
2013-04-06 08:47:00,32.5,18.9,30.34,NNW,340,1.0,7.0,57,0.00,,,0.00,WUHU216DAVISVP2,2013-04-06 12:47:00,
2013-04-06 08:52:00,32.7,18.7,30.34,ENE,62,1.0,7.0,56,0.00,,,0.00,WUHU216DAVISVP2,2013-04-06 12:52:00,
2013-04-06 08:58:00,32.8,19.7,30.34,East,94,1.0,9.0,58,0.00,,,0.00,WUHU216DAVISVP2,2013-04-06 12:58:00,
2013-04-06 09:03:00,33.4,18.5,30.35,East,101,1.0,9.0,54,0.00,,,0.00,WUHU216DAVISVP2,2013-04-06 13:03:00,
2013-04-06 09:09:00,33.4,19.4,30.35,ENE,63,3.0,8.0,56,0.00,,,0.00,WUHU216DAVISVP2,2013-04-06 13:09:00,
2013-04-06 09:14:00,33.1,17.8,30.35,ENE,68,4.0,11.0,53,0.00,,,0.00,WUHU216DAVISVP2,2013-04-06 13:14:00,
2013-04-06 09:19:00,33.3,19.3,30.35,North,9,4.0,11.0,56,0.00,,,0.00,WUHU216DAVISVP2,2013-04-06 13:19:00,
2013-04-06 09:24:00,33.1,19.1,30.35,NE,54,3.0,11.0,56,0.00,,,0.00,WUHU216DAVISVP2,2013-04-06 13:24:00,
2013-04-06 09:32:00,33.2,18.8,30.35,East,89,1.0,9.0,55,0.00,,,0.00,WUHU216DAVISVP2,2013-04-06 13:32:00,
2013-04-06 09:39:00,33.7,19.7,30.35,ENE,62,3.0,9.0,56,0.00,,,0.00,WUHU216DAVISVP2,2013-04-06 13:39:00,
2013-04-06 09:44:00,33.5,18.6,30.35,North,9,0.0,9.0,54,0.00,,,0.00,WUHU216DAVISVP2,2013-04-06 13:44:00,
2013-04-06 09:50:00,34.1,19.6,30.35,NE,41,2.0,8.0,55,0.00,,,0.00,WUHU216DAVISVP2,2013-04-06 13:50:00,
2013-04-06 09:56:00,33.6,18.3,30.36,NE,36,2.0,10.0,53,0.00,,,0.00,WUHU216DAVISVP2,2013-04-06 13:56:00,
2013-04-06 10:01:00,33.7,18.4,30.36,NNE,20,3.0,10.0,53,0.00,,,0.00,WUHU216DAVISVP2,2013-04-06 14:01:00,
2013-04-06 10:07:00,33.8,18.0,30.36,WSW,239,0.0,10.0,52,0.00,,,0.00,WUHU216DAVISVP2,2013-04-06 14:07:00,
2013-04-06 10:12:00,34.7,19.3,30.36,East,82,4.0,8.0,53,0.00,,,0.00,WUHU216DAVISVP2,2013-04-06 14:12:00,
2013-04-06 10:17:00,34.7,18.4,30.36,ENE,68,1.0,5.0,51,0.00,,,0.00,WUHU216DAVISVP2,2013-04-06 14:17:00,
2013-04-06 10:22:00,34.6,18.7,30.36,North,349,1.0,6.0,52,0.00,,,0.00,WUHU216DAVISVP2,2013-04-06 14:22:00,
2013-04-06 10:28:00,34.6,18.7,30.36,WNW,291,1.0,7.0,52,0.00,,,0.00,WUHU216DAVISVP2,2013-04-06 14:28:00,
2013-04-06 10:33:00,34.8,18.5,30.36,NNE,15,1.0,7.0,51,0.00,,,0.00,WUHU216DAVISVP2,2013-04-06 14:33:00,
2013-04-06 10:38:00,34.9,19.0,30.36,NE,39,8.0,9.0,52,0.00,,,0.00,WUHU216DAVISVP2,2013-04-06 14:38:00,
2013-04-06 10:44:00,34.7,19.3,30.36,East,86,3.0,9.0,53,0.00,,,0.00,WUHU216DAVISVP2,2013-04-06 14:44:00,
2013-04-06 10:50:00,35.3,18.9,30.36,NNW,333,1.0,9.0,51,0.00,,,0.00,WUHU216DAVISVP2,2013-04-06 14:50:00,
2013-04-06 10:56:00,36.5,20.0,30.36,ESE,113,3.0,8.0,51,0.00,,,0.00,WUHU216DAVISVP2,2013-04-06 14:56:00,
2013-04-06 11:01:00,35.3,18.4,30.36,NNW,333,1.0,8.0,50,0.00,,,0.00,WUHU216DAVISVP2,2013-04-06 15:01:00,
2013-04-06 11:06:00,36.3,19.8,30.36,SE,132,0.0,8.0,51,0.00,,,0.00,WUHU216DAVISVP2,2013-04-06 15:06:00,
2013-04-06 11:11:00,36.8,18.8,30.36,ENE,62,5.0,12.0,48,0.00,,,0.00,WUHU216DAVISVP2,2013-04-06 15:11:00,
2013-04-06 11:17:00,36.0,19.6,30.36,SE,143,3.0,12.0,51,0.00,,,0.00,WUHU216DAVISVP2,2013-04-06 15:17:00,
2013-04-06 11:22:00,36.2,18.8,30.36,ESE,106,8.0,11.0,49,0.00,,,0.00,WUHU216DAVISVP2,2013-04-06 15:22:00,
2013-04-06 11:27:00,35.8,18.4,30.36,SE,141,1.0,11.0,49,0.00,,,0.00,WUHU216DAVISVP2,2013-04-06 15:27:00,
2013-04-06 11:33:00,36.0,19.1,30.36,NNE,16,0.0,7.0,50,0.00,,,0.00,WUHU216DAVISVP2,2013-04-06 15:33:00,
2013-04-06 11:38:00,37.9,18.8,30.36,WSW,255,6.0,8.0,46,0.00,,,0.00,WUHU216DAVISVP2,2013-04-06 15:38:00,
2013-04-06 11:43:00,37.7,19.2,30.35,SE,131,1.0,9.0,47,0.00,,,0.00,WUHU216DAVISVP2,2013-04-06 15:43:00,
2013-04-06 11:49:00,38.6,18.9,30.35,ENE,78,5.0,8.0,45,0.00,,,0.00,WUHU216DAVISVP2,2013-04-06 15:49:00,
2013-04-06 11:54:00,37.9,18.3,30.35,East,79,3.0,9.0,45,0.00,,,0.00,WUHU216DAVISVP2,2013-04-06 15:54:00,
2013-04-06 11:59:00,37.4,16.8,30.35,East,93,1.0,9.0,43,0.00,,,0.00,WUHU216DAVISVP2,2013-04-06 15:59:00,
2013-04-06 12:04:00,38.1,19.0,30.35,SE,124,1.0,8.0,46,0.00,,,0.00,WUHU216DAVISVP2,2013-04-06 16:04:00,
2013-04-06 12:11:00,39.4,18.0,30.35,NNE,25,4.0,6.0,42,0.00,,,0.00,WUHU216DAVISVP2,2013-04-06 16:11:00,
2013-04-06 12:16:00,38.9,17.6,30.35,ENE,58,2.0,6.0,42,0.00,,,0.00,WUHU216DAVISVP2,2013-04-06 16:16:00,
2013-04-06 12:21:00,38.6,15.6,30.35,ENE,77,1.0,6.0,39,0.00,,,0.00,WUHU216DAVISVP2,2013-04-06 16:21:00,
2013-04-06 12:27:00,38.4,16.5,30.34,NNE,12,4.0,6.0,41,0.00,,,0.00,WUHU216DAVISVP2,2013-04-06 16:27:00,
2013-04-06 12:32:00,39.0,17.1,30.34,NNE,16,4.0,6.0,41,0.00,,,0.00,WUHU216DAVISVP2,2013-04-06 16:32:00,
2013-04-06 12:39:00,39.6,17.1,30.34,NNW,335,3.0,7.0,40,0.00,,,0.00,WUHU216DAVISVP2,2013-04-06 16:39:00,
2013-04-06 12:44:00,39.7,17.1,30.34,NNE,23,5.0,7.0,40,0.00,,,0.00,WUHU216DAVISVP2,2013-04-06 16:44:00,
2013-04-06 12:49:00,39.7,17.7,30.33,NE,53,6.0,6.0,41,0.00,,,0.00,WUHU216DAVISVP2,2013-04-06 16:49:00,
2013-04-06 12:55:00,38.7,16.2,30.33,North,5,2.0,9.0,40,0.00,,,0.00,WUHU216DAVISVP2,2013-04-06 16:55:00,
2013-04-06 13:01:00,40.0,18.6,30.33,ESE,105,5.0,9.0,42,0.00,,,0.00,WUHU216DAVISVP2,2013-04-06 17:01:00,
2013-04-06 13:06:00,39.6,18.4,30.33,East,86,5.0,8.0,42,0.00,,,0.00,WUHU216DAVISVP2,2013-04-06 17:06:00,
2013-04-06 13:11:00,40.6,18.0,30.33,South,174,4.0,8.0,40,0.00,,,0.00,WUHU216DAVISVP2,2013-04-06 17:11:00,
2013-04-06 13:16:00,41.3,19.2,30.33,SW,225,4.0,7.0,41,0.00,,,0.00,WUHU216DAVISVP2,2013-04-06 17:16:00,
2013-04-06 13:23:00,40.2,18.8,30.33,ESE,120,3.0,10.0,42,0.00,,,0.00,WUHU216DAVISVP2,2013-04-06 17:23:00,
2013-04-06 13:29:00,41.7,19.5,30.33,SW,232,6.0,10.0,41,0.00,,,0.00,WUHU216DAVISVP2,2013-04-06 17:29:00,
2013-04-06 13:34:00,41.0,17.7,30.33,West,262,2.0,10.0,39,0.00,,,0.00,WUHU216DAVISVP2,2013-04-06 17:34:00,
2013-04-06 13:39:00,40.2,17.0,30.33,WSW,250,1.0,10.0,39,0.00,,,0.00,WUHU216DAVISVP2,2013-04-06 17:39:00,
2013-04-06 13:44:00,40.9,18.2,30.33,NNW,329,1.0,10.0,40,0.00,,,0.00,WUHU216DAVISVP2,2013-04-06 17:44:00,
2013-04-06 13:49:00,42.0,18.6,30.33,South,174,3.0,10.0,39,0.00,,,0.00,WUHU216DAVISVP2,2013-04-06 17:49:00,
2013-04-06 13:55:00,42.2,19.4,30.32,SSE,160,1.0,7.0,40,0.00,,,0.00,WUHU216DAVISVP2,2013-04-06 17:55:00,
2013-04-06 14:02:00,42.7,19.8,30.32,SSW,195,3.0,9.0,40,0.00,,,0.00,WUHU216DAVISVP2,2013-04-06 18:02:00,
2013-04-06 14:09:00,42.3,18.3,30.32,WSW,250,4.0,9.0,38,0.00,,,0.00,WUHU216DAVISVP2,2013-04-06 18:09:00,
2013-04-06 14:14:00,42.0,18.6,30.32,WSW,249,8.0,10.0,39,0.00,,,0.00,WUHU216DAVISVP2,2013-04-06 18:14:00,
2013-04-06 14:19:00,41.7,18.5,30.32,SSE,148,2.0,10.0,39,0.00,,,0.00,WUHU216DAVISVP2,2013-04-06 18:19:00,
2013-04-06 14:26:00,42.5,18.4,30.32,SW,235,4.0,9.0,38,0.00,,,0.00,WUHU216DAVISVP2,2013-04-06 18:26:00,
2013-04-06 14:31:00,41.8,17.8,30.32,SE,143,3.0,9.0,38,0.00,,,0.00,WUHU216DAVISVP2,2013-04-06 18:31:00,
2013-04-06 14:37:00,42.1,18.7,30.32,WSW,255,0.0,9.0,39,0.00,,,0.00,WUHU216DAVISVP2,2013-04-06 18:37:00,
2013-04-06 14:42:00,43.3,17.9,30.31,South,169,5.0,9.0,36,0.00,,,0.00,WUHU216DAVISVP2,2013-04-06 18:42:00,
2013-04-06 14:47:00,43.3,18.5,30.31,SSE,163,5.0,9.0,37,0.00,,,0.00,WUHU216DAVISVP2,2013-04-06 18:47:00,
2013-04-06 14:53:00,43.6,18.8,30.31,SE,139,4.0,8.0,37,0.00,,,0.00,WUHU216DAVISVP2,2013-04-06 18:53:00,
2013-04-06 14:58:00,43.7,18.9,30.31,South,170,6.0,8.0,37,0.00,,,0.00,WUHU216DAVISVP2,2013-04-06 18:58:00,
2013-04-06 15:03:00,44.2,20.2,30.30,SSE,152,2.0,7.0,38,0.00,,,0.00,WUHU216DAVISVP2,2013-04-06 19:03:00,
2013-04-06 15:09:00,44.2,18.2,30.30,SW,228,6.0,9.0,35,0.00,,,0.00,WUHU216DAVISVP2,2013-04-06 19:09:00,
2013-04-06 15:14:00,43.6,17.5,30.30,WSW,239,7.0,10.0,35,0.00,,,0.00,WUHU216DAVISVP2,2013-04-06 19:14:00,
2013-04-06 15:19:00,43.9,17.8,30.29,SE,145,3.0,10.0,35,0.00,,,0.00,WUHU216DAVISVP2,2013-04-06 19:19:00,
2013-04-06 15:24:00,44.0,17.2,30.29,SE,134,3.0,10.0,34,0.00,,,0.00,WUHU216DAVISVP2,2013-04-06 19:24:00,
2013-04-06 15:29:00,43.5,16.7,30.29,ESE,122,4.0,9.0,34,0.00,,,0.00,WUHU216DAVISVP2,2013-04-06 19:29:00,
2013-04-06 15:35:00,43.7,17.6,30.29,SSE,162,5.0,9.0,35,0.00,,,0.00,WUHU216DAVISVP2,2013-04-06 19:35:00,
2013-04-06 15:41:00,43.8,17.0,30.29,SE,125,6.0,9.0,34,0.00,,,0.00,WUHU216DAVISVP2,2013-04-06 19:41:00,
2013-04-06 15:46:00,42.8,15.4,30.28,East,96,2.0,10.0,33,0.00,,,0.00,WUHU216DAVISVP2,2013-04-06 19:46:00,
2013-04-06 15:51:00,42.8,15.4,30.28,SE,132,3.0,11.0,33,0.00,,,0.00,WUHU216DAVISVP2,2013-04-06 19:51:00,
2013-04-06 15:56:00,43.0,17.0,30.27,East,91,7.0,11.0,35,0.00,,,0.00,WUHU216DAVISVP2,2013-04-06 19:56:00,
2013-04-06 16:02:00,42.8,15.4,30.27,East,101,6.0,11.0,33,0.00,,,0.00,WUHU216DAVISVP2,2013-04-06 20:02:00,
2013-04-06 16:08:00,43.0,15.6,30.27,SE,141,4.0,11.0,33,0.00,,,0.00,WUHU216DAVISVP2,2013-04-06 20:08:00,
2013-04-06 16:13:00,43.6,16.1,30.27,SW,218,2.0,11.0,33,0.00,,,0.00,WUHU216DAVISVP2,2013-04-06 20:13:00,
2013-04-06 16:19:00,43.5,13.9,30.26,South,190,2.0,10.0,30,0.00,,,0.00,WUHU216DAVISVP2,2013-04-06 20:19:00,
2013-04-06 16:24:00,44.0,15.1,30.26,SW,232,2.0,8.0,31,0.00,,,0.00,WUHU216DAVISVP2,2013-04-06 20:24:00,
2013-04-06 16:29:00,45.2,16.1,30.26,South,183,4.0,8.0,31,0.00,,,0.00,WUHU216DAVISVP2,2013-04-06 20:29:00,
2013-04-06 16:35:00,45.3,16.9,30.26,South,191,1.0,8.0,32,0.00,,,0.00,WUHU216DAVISVP2,2013-04-06 20:35:00,
2013-04-06 16:40:00,45.4,17.0,30.25,ESE,118,1.0,8.0,32,0.00,,,0.00,WUHU216DAVISVP2,2013-04-06 20:40:00,
2013-04-06 16:45:00,46.1,17.6,30.25,ESE,112,5.0,8.0,32,0.00,,,0.00,WUHU216DAVISVP2,2013-04-06 20:45:00,
2013-04-06 16:51:00,45.0,15.9,30.25,NE,54,2.0,8.0,31,0.00,,,0.00,WUHU216DAVISVP2,2013-04-06 20:51:00,
2013-04-06 16:57:00,44.6,15.0,30.25,ESE,120,5.0,8.0,30,0.00,,,0.00,WUHU216DAVISVP2,2013-04-06 20:57:00,
2013-04-06 17:02:00,44.8,14.2,30.25,South,187,4.0,8.0,29,0.00,,,0.00,WUHU216DAVISVP2,2013-04-06 21:02:00,
2013-04-06 17:09:00,45.3,13.1,30.24,SSE,155,6.0,9.0,27,0.00,,,0.00,WUHU216DAVISVP2,2013-04-06 21:09:00,
2013-04-06 17:14:00,45.9,11.9,30.24,SSE,156,8.0,9.0,25,0.00,,,0.00,WUHU216DAVISVP2,2013-04-06 21:14:00,
2013-04-06 17:20:00,45.8,12.7,30.24,SE,128,2.0,9.0,26,0.00,,,0.00,WUHU216DAVISVP2,2013-04-06 21:20:00,
2013-04-06 17:26:00,45.9,14.4,30.24,WSW,249,1.0,8.0,28,0.00,,,0.00,WUHU216DAVISVP2,2013-04-06 21:26:00,
2013-04-06 17:31:00,46.0,14.5,30.24,SSE,163,4.0,8.0,28,0.00,,,0.00,WUHU216DAVISVP2,2013-04-06 21:31:00,
2013-04-06 17:38:00,45.6,16.5,30.24,SE,143,3.0,6.0,31,0.00,,,0.00,WUHU216DAVISVP2,2013-04-06 21:38:00,
2013-04-06 17:44:00,45.5,17.1,30.23,SSE,153,4.0,6.0,32,0.00,,,0.00,WUHU216DAVISVP2,2013-04-06 21:44:00,
2013-04-06 17:49:00,45.4,17.7,30.23,East,92,4.0,6.0,33,0.00,,,0.00,WUHU216DAVISVP2,2013-04-06 21:49:00,
2013-04-06 17:54:00,45.1,17.5,30.23,East,84,2.0,8.0,33,0.00,,,0.00,WUHU216DAVISVP2,2013-04-06 21:54:00,
2013-04-06 17:59:00,44.9,18.0,30.23,ESE,108,2.0,8.0,34,0.00,,,0.00,WUHU216DAVISVP2,2013-04-06 21:59:00,
2013-04-06 18:06:00,44.7,17.8,30.23,East,100,2.0,8.0,34,0.00,,,0.00,WUHU216DAVISVP2,2013-04-06 22:06:00,
2013-04-06 18:11:00,44.5,17.6,30.23,ESE,120,2.0,7.0,34,0.00,,,0.00,WUHU216DAVISVP2,2013-04-06 22:11:00,
2013-04-06 18:16:00,44.6,17.7,30.23,ESE,108,3.0,6.0,34,0.00,,,0.00,WUHU216DAVISVP2,2013-04-06 22:16:00,
2013-04-06 18:22:00,44.4,17.5,30.23,ESE,105,4.0,6.0,34,0.00,,,0.00,WUHU216DAVISVP2,2013-04-06 22:22:00,
2013-04-06 18:28:00,44.4,18.2,30.23,ESE,112,2.0,5.0,35,0.00,,,0.00,WUHU216DAVISVP2,2013-04-06 22:28:00,
2013-04-06 18:33:00,44.5,18.3,30.22,ESE,113,2.0,5.0,35,0.00,,,0.00,WUHU216DAVISVP2,2013-04-06 22:33:00,
2013-04-06 18:38:00,44.6,18.4,30.22,ENE,77,3.0,5.0,35,0.00,,,0.00,WUHU216DAVISVP2,2013-04-06 22:38:00,
2013-04-06 18:45:00,44.6,19.3,30.22,ESE,106,1.0,4.0,36,0.00,,,0.00,WUHU216DAVISVP2,2013-04-06 22:45:00,
2013-04-06 18:50:00,44.7,18.7,30.22,East,97,0.0,4.0,35,0.00,,,0.00,WUHU216DAVISVP2,2013-04-06 22:50:00,
2013-04-06 18:56:00,44.7,18.0,30.22,ESE,105,2.0,4.0,34,0.00,,,0.00,WUHU216DAVISVP2,2013-04-06 22:56:00,
2013-04-06 19:02:00,44.7,18.7,30.22,ENE,77,0.0,4.0,35,0.00,,,0.00,WUHU216DAVISVP2,2013-04-06 23:02:00,
2013-04-06 19:08:00,44.6,18.4,30.22,East,88,2.0,4.0,35,0.00,,,0.00,WUHU216DAVISVP2,2013-04-06 23:08:00,
2013-04-06 19:13:00,44.6,19.0,30.21,ENE,72,2.0,4.0,36,0.00,,,0.00,WUHU216DAVISVP2,2013-04-06 23:13:00,
2013-04-06 19:19:00,44.6,19.0,30.21,East,80,1.0,4.0,36,0.00,,,0.00,WUHU216DAVISVP2,2013-04-06 23:19:00,
2013-04-06 19:24:00,44.6,19.0,30.21,ENE,77,1.0,4.0,36,0.00,,,0.00,WUHU216DAVISVP2,2013-04-06 23:24:00,
2013-04-06 19:29:00,44.6,19.7,30.21,ESE,105,3.0,4.0,37,0.00,,,0.00,WUHU216DAVISVP2,2013-04-06 23:29:00,
2013-04-06 19:35:00,44.6,19.7,30.20,ESE,103,1.0,4.0,37,0.00,,,0.00,WUHU216DAVISVP2,2013-04-06 23:35:00,
2013-04-06 19:42:00,44.6,20.3,30.20,ESE,115,3.0,5.0,38,0.00,,,0.00,WUHU216DAVISVP2,2013-04-06 23:42:00,
2013-04-06 19:47:00,44.5,19.6,30.20,ESE,113,4.0,8.0,37,0.00,,,0.00,WUHU216DAVISVP2,2013-04-06 23:47:00,
2013-04-06 19:52:00,44.5,19.6,30.20,East,99,4.0,8.0,37,0.00,,,0.00,WUHU216DAVISVP2,2013-04-06 23:52:00,
2013-04-06 19:58:00,44.4,19.5,30.20,East,98,3.0,7.0,37,0.00,,,0.00,WUHU216DAVISVP2,2013-04-06 23:58:00,
2013-04-06 20:04:00,44.3,19.4,30.20,ESE,122,4.0,7.0,37,0.00,,,0.00,WUHU216DAVISVP2,2013-04-07 00:04:00,
2013-04-06 20:09:00,44.3,19.4,30.20,ESE,120,4.0,8.0,37,0.00,,,0.00,WUHU216DAVISVP2,2013-04-07 00:09:00,
2013-04-06 20:14:00,44.3,20.1,30.19,East,86,3.0,8.0,38,0.00,,,0.00,WUHU216DAVISVP2,2013-04-07 00:14:00,
2013-04-06 20:19:00,44.3,19.6,30.19,SE,129,2.0,9.0,37,0.00,,,0.00,WUHU216DAVISVP2,2013-04-07 00:19:00,
2013-04-06 20:24:00,44.2,20.2,30.19,East,101,3.0,9.0,38,0.00,,,0.00,WUHU216DAVISVP2,2013-04-07 00:24:00,
2013-04-06 20:30:00,44.1,19.9,30.19,ESE,107,5.0,9.0,38,0.00,,,0.00,WUHU216DAVISVP2,2013-04-07 00:30:00,
2013-04-06 20:35:00,44.1,19.9,30.19,ESE,112,5.0,8.0,38,0.00,,,0.00,WUHU216DAVISVP2,2013-04-07 00:35:00,
2013-04-06 20:40:00,44.0,19.8,30.19,SE,125,2.0,8.0,38,0.00,,,0.00,WUHU216DAVISVP2,2013-04-07 00:40:00,
2013-04-06 20:45:00,44.0,20.4,30.19,ESE,118,3.0,6.0,39,0.00,,,0.00,WUHU216DAVISVP2,2013-04-07 00:45:00,
2013-04-06 20:50:00,43.9,20.3,30.18,ENE,77,2.0,6.0,39,0.00,,,0.00,WUHU216DAVISVP2,2013-04-07 00:50:00,
2013-04-06 20:55:00,43.9,20.3,30.18,East,90,3.0,6.0,39,0.00,,,0.00,WUHU216DAVISVP2,2013-04-07 00:55:00,
2013-04-06 21:00:00,43.8,20.8,30.18,ESE,116,2.0,6.0,40,0.00,,,0.00,WUHU216DAVISVP2,2013-04-07 01:00:00,
2013-04-06 21:05:00,43.7,20.7,30.18,SE,129,3.0,7.0,40,0.00,,,0.00,WUHU216DAVISVP2,2013-04-07 01:05:00,
2013-04-06 21:10:00,43.7,20.1,30.18,East,88,3.0,7.0,39,0.00,,,0.00,WUHU216DAVISVP2,2013-04-07 01:10:00,
2013-04-06 21:15:00,43.6,20.7,30.18,ESE,114,4.0,7.0,40,0.00,,,0.00,WUHU216DAVISVP2,2013-04-07 01:15:00,
2013-04-06 21:20:00,43.6,20.8,30.18,ESE,120,2.0,6.0,40,0.00,,,0.00,WUHU216DAVISVP2,2013-04-07 01:20:00,
2013-04-06 21:25:00,43.6,20.8,30.18,ESE,123,2.0,6.0,40,0.00,,,0.00,WUHU216DAVISVP2,2013-04-07 01:25:00,
2013-04-06 21:30:00,43.6,21.4,30.18,SE,128,1.0,6.0,41,0.00,,,0.00,WUHU216DAVISVP2,2013-04-07 01:30:00,
2013-04-06 21:35:00,43.4,20.7,30.18,ESE,122,2.0,5.0,40,0.00,,,0.00,WUHU216DAVISVP2,2013-04-07 01:35:00,
2013-04-06 21:41:00,43.3,21.0,30.17,SE,129,2.0,4.0,41,0.00,,,0.00,WUHU216DAVISVP2,2013-04-07 01:41:00,
2013-04-06 21:46:00,43.3,21.0,30.17,SE,128,1.0,4.0,41,0.00,,,0.00,WUHU216DAVISVP2,2013-04-07 01:46:00,
2013-04-06 21:51:00,43.3,21.0,30.17,SE,141,2.0,4.0,41,0.00,,,0.00,WUHU216DAVISVP2,2013-04-07 01:51:00,
2013-04-06 21:57:00,43.3,21.0,30.17,SSE,165,2.0,4.0,41,0.00,,,0.00,WUHU216DAVISVP2,2013-04-07 01:57:00,
2013-04-06 22:02:00,43.3,20.4,30.17,SE,125,2.0,5.0,40,0.00,,,0.00,WUHU216DAVISVP2,2013-04-07 02:02:00,
2013-04-06 22:07:00,43.3,20.4,30.16,SSE,162,4.0,5.0,40,0.00,,,0.00,WUHU216DAVISVP2,2013-04-07 02:07:00,
2013-04-06 22:12:00,43.2,20.3,30.16,SSE,162,2.0,5.0,40,0.00,,,0.00,WUHU216DAVISVP2,2013-04-07 02:12:00,
2013-04-06 22:17:00,43.0,19.5,30.16,SE,145,3.0,6.0,39,0.00,,,0.00,WUHU216DAVISVP2,2013-04-07 02:17:00,
2013-04-06 22:22:00,42.7,19.8,30.16,SSE,153,3.0,10.0,40,0.00,,,0.00,WUHU216DAVISVP2,2013-04-07 02:22:00,
2013-04-06 22:27:00,42.5,20.3,30.16,SE,138,4.0,10.0,41,0.00,,,0.00,WUHU216DAVISVP2,2013-04-07 02:27:00,
2013-04-06 22:32:00,42.3,20.7,30.15,South,172,4.0,10.0,42,0.00,,,0.00,WUHU216DAVISVP2,2013-04-07 02:32:00,
2013-04-06 22:37:00,42.3,20.7,30.15,SSE,161,4.0,8.0,42,0.00,,,0.00,WUHU216DAVISVP2,2013-04-07 02:37:00,
2013-04-06 22:42:00,42.4,20.7,30.15,SE,128,5.0,8.0,42,0.00,,,0.00,WUHU216DAVISVP2,2013-04-07 02:42:00,
2013-04-06 22:48:00,42.6,20.9,30.15,SSE,162,6.0,8.0,42,0.00,,,0.00,WUHU216DAVISVP2,2013-04-07 02:48:00,
2013-04-06 22:53:00,42.9,21.2,30.15,SSE,159,5.0,10.0,42,0.00,,,0.00,WUHU216DAVISVP2,2013-04-07 02:53:00,
2013-04-06 22:59:00,43.2,20.9,30.15,South,170,6.0,10.0,41,0.00,,,0.00,WUHU216DAVISVP2,2013-04-07 02:59:00,
2013-04-06 23:05:00,43.6,20.8,30.14,South,177,3.0,10.0,40,0.00,,,0.00,WUHU216DAVISVP2,2013-04-07 03:05:00,
2013-04-06 23:10:00,43.9,21.1,30.13,SSE,161,1.0,10.0,40,0.00,,,0.00,WUHU216DAVISVP2,2013-04-07 03:10:00,
2013-04-06 23:16:00,44.0,21.0,30.13,South,189,5.0,11.0,40,0.00,,,0.00,WUHU216DAVISVP2,2013-04-07 03:16:00,
2013-04-06 23:21:00,44.1,21.7,30.13,SE,128,4.0,12.0,41,0.00,,,0.00,WUHU216DAVISVP2,2013-04-07 03:21:00,
2013-04-06 23:27:00,44.2,21.8,30.13,SE,143,3.0,12.0,41,0.00,,,0.00,WUHU216DAVISVP2,2013-04-07 03:27:00,
2013-04-06 23:33:00,44.3,21.9,30.13,SSE,162,3.0,12.0,41,0.00,,,0.00,WUHU216DAVISVP2,2013-04-07 03:33:00,
2013-04-06 23:38:00,44.4,22.0,30.13,SSE,159,3.0,11.0,41,0.00,,,0.00,WUHU216DAVISVP2,2013-04-07 03:38:00,
2013-04-06 23:43:00,44.5,22.1,30.12,SSE,150,2.0,11.0,41,0.00,,,0.00,WUHU216DAVISVP2,2013-04-07 03:43:00,
2013-04-06 23:48:00,44.6,22.2,30.11,SSW,204,3.0,11.0,41,0.00,,,0.00,WUHU216DAVISVP2,2013-04-07 03:48:00,
2013-04-06 23:55:00,44.6,22.2,30.11,South,171,9.0,12.0,41,0.00,,,0.00,WUHU216DAVISVP2,2013-04-07 03:55:00,